Overview Statistics Trail Chart Weather Telemetry Raw packets
 

This is the latest recevied weather packets stored in our database for station/object KD4EG. If no packets are shown the sender has not sent any weather packets the latest 10 day(s).

<< 26 27 28 29 30 31 32 >>
Time Temp. Humidity Pressure Rain* Wind** Luminosity Snow
1788466167 36.11° C 47% 1018.8 hPa 0 mm - 558 W/m² -
1788465862 36.67° C 47% 1018.7 hPa 0 mm - 545 W/m² -
1788465558 36.67° C 46% 1018.5 hPa 0 mm - 550 W/m² -
1788465254 35.56° C 47% 1018.7 hPa 0 mm - 565 W/m² -
1788464948 36.67° C 46% 1018.6 hPa 0 mm - 595 W/m² -
1788464644 35.56° C 48% 1018.7 hPa 0 mm - 559 W/m² -
1788464339 35° C 49% 1018.8 hPa 0 mm - 169 W/m² -
1788464036 35.56° C 48% 1018.9 hPa 0 mm - 122 W/m² -
1788463730 36.11° C 46% 1018.6 hPa 0 mm - 132 W/m² -
1788463426 36.11° C 46% 1019 hPa 0 mm - 154 W/m² -
1788463123 37.22° C 45% 1019 hPa 0 mm - 317 W/m² -
1788462818 36.67° C 45% 1019.2 hPa 0 mm - 690 W/m² -
1788462517 36.67° C 45% 1018.9 hPa 0 mm - 684 W/m² -
1788462212 36.67° C 46% 1019.4 hPa 0 mm - 680 W/m² -
1788461912 35.56° C 47% 1019.3 hPa 0 mm - 652 W/m² -
1788461607 35° C 48% 1019.3 hPa 0 mm - 645 W/m² -
1788461303 35.56° C 48% 1019.3 hPa 0 mm - 151 W/m² -
1788461000 35.56° C 48% 1019.5 hPa 0 mm - 182 W/m² -
1788460694 35.56° C 48% 1019.6 hPa 0 mm - 188 W/m² -
1788460394 36.67° C 46% 1019.6 hPa 0 mm - 211 W/m² -
1788460088 36.67° C 45% 1019.6 hPa 0 mm - 475 W/m² -
1788459788 36.67° C 45% 1019.7 hPa 0 mm - 739 W/m² -
1788459488 36.11° C 45% 1019.8 hPa 0 mm - 747 W/m² -
1788459183 36.11° C 47% 1019.7 hPa 0 mm - 725 W/m² -
1788458877 36.11° C 49% 1019.6 hPa 0 mm - 677 W/m² -

* Rain latest hour (hover to see other rain measurements)
** Current wind speed in m/s (hover to see current wind gust speed)